Regional Weather Roundup
Issued by NWS Northern Indiana

Home | Current Version | Previous Version | Graphics & Text | Print | Product List | Glossary On
Versions: 1 2 3 4 5 6 7 8 9 10 11 12 13 14 15 16 17 18 19 20 21 22 23 24 25 26 27 28 29 30 31 32 33 34 35 36 37 38 39 40 41 42 43 44 45 46 47 48 49 50
000
ASUS43 KIWX 220610
RWRIWX

KIWX WEATHER ROUNDUP
NATIONAL WEATHER SERVICE NORTHERN INDIANA
200 AM EDT WED MAR 22 2017

NOTE: "FAIR" INDICATES FEW OR NO CLOUDS BELOW 12,000 FEET WITH NO
SIGNIFICANT WEATHER AND/OR OBSTRUCTIONS TO VISIBILITY.

* THESE STATIONS ARE NOT UNDER NWS QUALITY CONTROL. THEY ALSO MAY NOT
  REPORT WEATHER SUCH AS PRECIPITATION OR FOG.

INZ001>027-220700-
NORTHERN INDIANA

CITY           SKY/WX    TMP DP  RH WIND       PRES   REMARKS
GARY*          MOCLDY    33  21  61 N21G30    30.44R WCI  21
VALPARAISO     MOCLDY    31  21  66 N15G25    30.41R WCI  20
6HR MIN TEMP:  31; 6HR MAX TEMP:  36;

MICHIGAN CITY* MOCLDY    30  19  64 N14G26    30.42R WCI  20
LAPORTE*       PTCLDY    29  19  66 N13G23    30.41R WCI  19
6HR MIN TEMP:  29; 6HR MAX TEMP:  35;

KNOX*          CLEAR     30   1  29 N21       30.39R WCI  17
SOUTH BEND     PTCLDY    27  14  58 N21       30.40R WCI  13
6HR MIN TEMP:  27; 6HR MAX TEMP:  35;

GOSHEN         CLEAR     29  13  51 N17G29    30.36R WCI  17
6HR MIN TEMP:  29; 6HR MAX TEMP:  38;

MONTICELLO*    CLEAR     32  25  74 N14       30.37R WCI  22
6HR MIN TEMP:  32; 6HR MAX TEMP:  41;

LOGANSPORT*    CLEAR     32  25  74 N10       30.36R WCI  24
ROCHESTER*     CLEAR     34  23  64 N13G18    30.37R WCI  25
WARSAW*        CLEAR     30  16  55 N16G22    30.36R WCI  19
ANGOLA*        CLEAR     27  10  50 N13       30.33R WCI  16
FORT WAYNE     PTCLDY    32  20  61 N13       30.32R WCI  22
6HR MIN TEMP:  32; 6HR MAX TEMP:  42;

HUNTINGTON*    CLEAR     32  19  58 N9        30.33R WCI  24
6HR MIN TEMP:  32; 6HR MAX TEMP:  40;

PERU/GRISSOM   CLEAR     31  23  72 N8        30.33R WCI  24
6HR MIN TEMP:  31; 6HR MAX TEMP:  43;

MARION*        CLEAR     32  23  69 N13       30.33R WCI  22

$$
INZ028>050-220700-
CENTRAL INDIANA

CITY           SKY/WX    TMP DP  RH WIND       PRES   REMARKS
LAFAYETTE      CLEAR     32  26  78 N15       30.36R WCI  22
6HR MIN TEMP:  32; 6HR MAX TEMP:  44;

KOKOMO*        CLEAR     32  24  72 N9        30.35R WCI  24
6HR MIN TEMP:  32; 6HR MAX TEMP:  43;

MUNCIE*        CLEAR     34  24  67 N9        30.31R WCI  27
6HR MIN TEMP:  34; 6HR MAX TEMP:  47;

INDIANAPOLIS   PTCLDY    35  22  58 N10       30.31R WCI  27
6HR MIN TEMP:  35; 6HR MAX TEMP:  47; 6HR PCP: TRACE;


$$
MIZ043>046-050>051-056>058-064>065-071>073-077>080-220700-
SOUTHWEST LOWER MICHIGAN

CITY           SKY/WX    TMP DP  RH WIND       PRES   REMARKS
BATTLE CREEK   CLEAR     24   6  46 N15G25    30.38R WCI  11
6HR MIN TEMP:  24; 6HR MAX TEMP:  37;

BENTON HARBOR  PTCLDY    29  11  47 N13G18    30.42R WCI  19
6HR MIN TEMP:  29; 6HR MAX TEMP:  37;

COLDWATER*     CLEAR     26   4  40 N14G21    30.36R WCI  14
6HR MIN TEMP:  26; 6HR MAX TEMP:  39;

HILLSDALE*     CLEAR     25  12  58 N10       30.32R WCI  15
HOLLAND        CLEAR     24   8  50 N12G18    30.44R WCI  13
6HR MIN TEMP:  24; 6HR MAX TEMP:  38;

GRAND RAPIDS   CLEAR     23   7  50 N15       30.42R WCI  10
6HR MIN TEMP:  23; 6HR MAX TEMP:  36;

KALAMAZOO      CLEAR     25   3  38 N17       30.39R WCI  12
6HR MIN TEMP:  25; 6HR MAX TEMP:  38;

STURGIS*       CLEAR     26   5  41 N15G21    30.36R WCI  14
6HR MIN TEMP:  26; 6HR MAX TEMP:  37;

THREE RIVERS*  FAIR      26   6  41 N8        30.39R WCI  18
6HR MIN TEMP:  26; 6HR MAX TEMP:  38;


$$
OHZ001>008-015>018-024>025-220700-
NORTHWEST OHIO

CITY           SKY/WX    TMP DP  RH WIND       PRES   REMARKS
WAUSEON*       FAIR      28  14  54 N18G25    30.32R WCI  16
DEFIANCE       CLEAR     29  17  61 N15G21    30.33R WCI  18
6HR MIN TEMP:  29; 6HR MAX TEMP:  40;

FINDLAY        CLEAR     31  16  54 N16       30.29R WCI  20
6HR MIN TEMP:  31; 6HR MAX TEMP:  46;

TOLEDO EXPRESS CLEAR     27  12  53 N18G28    30.32R WCI  14
6HR MIN TEMP:  27; 6HR MAX TEMP:  46;

TOLEDO METCALF CLEAR     29  15  56 N16G23    30.33R WCI  17
6HR MIN TEMP:  29; 6HR MAX TEMP:  48;

LIMA           CLEAR     30  20  66 N9        30.29R WCI  22
6HR MIN TEMP:  30; 6HR MAX TEMP:  44;


$$
AND FOR LAKE MICHIGAN COASTAL AND OPEN LAKE BUOY OBSERVATIONS

STATION/POSITION TEMP    WIND        PRES    VSBY  WAVE
                 AIR SEA DIR/SP/G                  HT/PER
                 (F)     (DEG/KT/KT) (MB)    (MI)  (FT/S)
CALUMET HARBOR            10/ 19/ 30   N/A
MICHIGAN CITY     30      10/ 34/ 37   N/A
BURNS HARBOR      33      30/ 24/ 34 1029.8R
SAINT JOSEPH      30      10/ 20/ 27 1030.8

$$
&&




USA.gov is the U.S. government's official web portal to all federal, state and local government web resources and services.